Location: Newark
(62.2411°N, 25.7465°E)
Time: 10:11:06
(UTC+00:00)

N. Korean satellite - Visible Passes

Search period start: 13 December 2019 00:00
Search period end: 23 December 2019 00:00
Orbit: 455 x 507 km, 97.2° (Epoch: 12 December)

Date Brightness Start Highest point End Pass type
(mag) Time Alt. Az. Time Alt. Az. Time Alt. Az.
13 Dec 8.7 03:41:10 10° NNE 03:44:17 27° E 03:47:21 10° SSE visible
13 Dec 6.7 05:14:25 10° N 05:17:53 47° WNW 05:21:16 10° SW visible
13 Dec 6.6 14:26:27 10° SE 14:30:04 57° ENE 14:33:41 10° N visible
13 Dec 9.1 16:00:40 10° SSW 16:03:45 24° W 16:06:49 10° NW visible
14 Dec 9.4 03:16:06 10° NE 03:18:36 18° E 03:21:03 10° SE visible
14 Dec 6.4 04:48:54 10° NNE 04:52:29 78° WNW 04:55:59 10° SSW visible
14 Dec 8.1 06:23:01 10° N 06:25:21 17° NW 06:27:41 10° W visible
14 Dec 7.2 14:01:19 10° SE 14:04:43 36° ENE 14:08:06 10° N visible
14 Dec 8.2 15:34:40 10° SSW 15:38:08 38° W 15:41:35 10° NNW visible
15 Dec 10.0 02:51:39 10° ENE 02:52:50 11° E 02:54:00 10° ESE visible
15 Dec 6.9 04:23:27 10° NNE 04:27:00 63° ESE 04:30:28 10° S visible
15 Dec 7.6 05:57:15 10° N 06:00:08 23° NW 06:02:59 10° WSW visible
15 Dec 7.1 15:08:56 10° S 15:12:36 63° WSW 15:16:13 10° NNW visible
15 Dec 10.0 16:45:18 10° WSW 16:46:44 12° W 16:48:09 10° WNW visible
16 Dec 8.0 03:58:06 10° NNE 04:01:27 37° E 04:04:43 10° SSE visible
16 Dec 7.1 05:31:36 10° N 05:34:51 34° WNW 05:38:03 10° SW visible
16 Dec 6.5 14:43:27 10° SSE 14:47:07 80° ENE 14:50:46 10° NNW visible
16 Dec 9.6 16:18:22 10° SW 16:20:58 18° W 16:23:34 10° NW visible
17 Dec 8.9 03:32:53 10° NE 03:35:49 24° E 03:38:41 10° SSE visible
17 Dec 6.5 05:06:01 10° N 05:09:30 55° WNW 05:12:54 10° SW visible
17 Dec 6.8 14:18:10 10° SE 14:21:43 49° ENE 14:25:13 10° N visible
17 Dec 8.8 15:52:06 10° SSW 15:55:18 28° W 15:58:29 10° NNW visible
18 Dec 9.6 03:07:57 10° NE 03:10:06 15° E 03:12:13 10° ESE visible
18 Dec 6.4 04:40:30 10° NNE 04:44:04 89° ESE 04:47:33 10° SSW visible
18 Dec 7.9 06:14:32 10° N 06:17:02 18° NW 06:19:30 10° W visible
18 Dec 7.3 13:53:06 10° ESE 13:56:22 32° ENE 13:59:36 10° N visible
18 Dec 7.8 15:26:11 10° S 15:29:42 44° W 15:33:12 10° NNW visible
19 Dec 7.3 04:15:05 10° NNE 04:18:34 53° ESE 04:21:58 10° S visible
19 Dec 7.5 05:48:48 10° N 05:51:47 26° WNW 05:54:44 10° WSW visible
19 Dec 6.8 15:00:32 10° S 15:04:11 74° WSW 15:07:47 10° NNW visible
19 Dec 9.9 16:36:21 10° WSW 16:38:13 13° W 16:40:05 10° NW visible
20 Dec 8.3 03:49:46 10° NNE 03:52:59 32° E 03:56:07 10° SSE visible
20 Dec 6.9 05:23:09 10° N 05:26:28 39° WNW 05:29:43 10° SW visible
20 Dec 6.5 14:35:06 10° SSE 14:38:43 68° ENE 14:42:18 10° NNW visible
20 Dec 9.3 16:09:42 10° SW 16:12:29 21° W 16:15:16 10° NW visible
21 Dec 9.2 03:24:37 10° NE 03:27:18 20° E 03:29:58 10° SE visible
21 Dec 6.4 04:57:36 10° NNE 05:01:05 64° WNW 05:04:31 10° SSW visible
21 Dec 8.2 06:31:54 10° NNW 06:33:53 14° NW 06:35:51 10° W visible
21 Dec 6.9 14:09:54 10° SE 14:13:20 42° ENE 14:16:44 10° N visible
21 Dec 8.5 15:43:33 10° SSW 15:46:50 32° W 15:50:06 10° NNW visible
22 Dec 9.8 02:59:51 10° NE 03:01:34 13° E 03:03:16 10° ESE visible
22 Dec 6.6 04:32:06 10° NNE 04:35:38 76° ESE 04:39:04 10° SSW visible
22 Dec 7.8 06:06:02 10° N 06:08:41 20° NW 06:11:17 10° WSW visible
22 Dec 7.5 15:17:43 10° S 15:21:16 52° W 15:24:47 10° NNW visible
